Reflectivity
6 13 11 12 15 11 -16 -20 -20 -20 -20 -20 -20 -19 -20 -20 -20 -20 -20 -20 -20 -20 -20 -20 -20 -20 -20 -20 -20 -20 -20 -20 -20 -20 -20 -20 -20 -20 -20 -20 -20 -20 -20 -20 -20 -20 -20
14 8 2 16 17 15 14 -16 -20 -20 -20 -20 -20 -20 -20 -20 -20 -20 -20 -20 -20 -20 -20 -20 -20 -20 -20 -20 -20 -20 -20 -20 -20 -20 -20 -20 -20 -20 -20 -20 -20 -20 -20 -20 -20 -20 -20
18 19 18 16 16 14 6 9 3 -20 -20 -20 -20 -20 -20 -20 -20 -20 -20 -20 -20 -20 -20 -20 -20 -20 -20 -20 -20 -20 -20 -20 -20 -20 -20 -20 -20 -20 -20 -20 -20 -20 -20 -20 -20 -20 -20
6 -1 16 16 16 16 14 -20 -20 -20 -20 -20 -20 -20 -20 -20 -20 -20 -20 -20 -20 -20 -20 -20 -20 -20 -20 -20 -20 -20 -20 -20 -20 -20 -20 -20 -20 -20 -20 -20 -20 -20 -20 -20 -20 -20 -20
-12 -18 -12 3 13 14 7 -13 -15 -20 -20 -20 -20 -20 -20 -20 -20 -20 -20 -20 -20 -20 -20 -20 -20 -20 -20 -20 -20 -20 -20 -20 -20 -20 -20 -20 -20 -20 -20 -20 -20 -20 -20 -20 -20 -20 -20
-16 -20 -20 -20 -20 -17 -10 -20 -20 -20 -20 -20 -20 -20 -20 -20 -20 -20 -20 -20 -20 -20 -20 -20 -20 -20 -20 -20 -20 -20 -20 -20 -20 -20 -20 -20 -20 -20 -20 -20 -20 -20 -20 -20 -20 -20 -20
-20 -20 -20 -20 -20 -20 -20 -20 -20 -20 -20 -20 -20 -20 -20 -20 -20 -20 -20 -20 -20 -20 -20 -20 -20 -20 -20 -20 -20 -20 -20 -20 -20 -20 -20 -20 -20 -20 -20 -20 -20 -20 -20 -20 -20 -20 -20
-20 -20 -20 -20 -20 -20 -20 -20 -20 -20 -20 -20 -20 -20 -20 -20 -20 -20 -20 -20 -20 -20 -20 -20 -20 -20 -20 -20 -20 -20 -20 -20 -20 -20 -20 -20 -20 -20 -20 -20 -20 -20 -20 -20 -20 -20 -20
-20 -20 -20 -20 -20 -20 -20 -20 -20 -20 -20 -20 -20 -20 -20 -20 -20 -20 -20 -20 -20 -20 -20 -20 -20 -20 -20 -20 -20 -20 -20 -20 -20 -20 -20 -20 -20 -20 -20 -20 -20 -20 -20 -20 -20 -20 -20
4 -17 -20 -20 -20 -20 -20 -20 -20 -20 -20 -20 -20 -20 -20 -20 -20 -20 -20 -20 -20 -20 -20 -20 -20 -20 -20 -20 -20 -20 -20 -20 -20 -20 -20 -20 -20 -20 -20 -20 -20 -20 -20 -20 -20 -20 -20
-19 -20 -20 -20 -20 -20 -20 -20 -20 -20 -20 -20 -20 -20 -20 -20 -20 -20 -20 -20 -20 -20 -20 -20 -20 -20 -20 -20 -20 -20 -20 -20 -20 -20 -20 -20 -20 -20 -20 -20 -20 -20 -20 -20 -20 -20 -20
-20 -20 -20 -20 -20 -20 -20 -20 -20 -20 -20 -20 -20 -20 -20 -20 -20 -20 -20 -20 -20 -20 -20 -20 -20 -20 -20 -20 -20 -20 -20 -20 -20 -20 -20 -20 -20 -20 -20 -20 -20 -20 -20 -20 -20 -20 -20
-20 -20 -20 -20 -20 -20 -20 -20 -20 -20 -20 -20 -20 -20 -20 -20 -20 -20 -20 -20 -20 -20 -20 -20 -20 -20 -20 -20 -20 -20 -20 -20 -20 -20 -20 -20 -20 -20 -20 -20 -20 -20 -20 -20 -20 -20 -20
-20 -20 -20 -20 -20 -20 -20 -20 -20 -20 -20 -20 -20 -20 -20 -20 -20 -20 -20 -20 -20 -20 -20 -20 -20 -20 -20 -20 -20 -20 -20 -20 -20 -20 -20 -20 -20 -20 -20 -20 -20 -20 -20 -20 -20 -20 -20
-20 -20 -20 -20 -20 -20 -20 -20 -20 -20 -20 -20 -20 -20 -20 -20 -20 -20 -20 -20 -20 -20 -20 -20 -20 -20 -20 -20 -20 -20 -20 -20 -20 -20 -20 -20 -20 -20 -20 -20 -20 -20 -20 -20 -20 -20 -20
-20 -20 -20 -20 -20 -20 -20 -20 -20 -20 -20 -20 -20 -20 -20 -20 -20 -20 -20 -20 -20 -20 -20 -20 -20 -20 -20 -20 -20 -20 -20 -20 -20 -20 -20 -20 -20 -20 -20 -20 -20 -20 -20 -20 -20 -20 -20
-20 -20 -20 -20 -20 -20 -20 -20 -20 -20 -20 -20 -20 -20 -20 -20 -20 -20 -20 -20 -20 -20 -20 -20 -20 -20 -20 -20 -20 -20 -20 -20 -20 -20 -20 -20 -20 -20 -20 -20 -20 -20 -20 -20 -20 -20 -20
-20 -20 -20 -20 -20 -20 -20 -20 -20 -20 -20 -20 -20 -20 -20 -20 -20 -20 -20 -20 -20 -20 -20 -20 -20 -20 -20 -20 -20 -20 -20 -20 -20 -20 -20 -20 -20 -20 -20 -20 -20 -20 -20 -20 -20 -20 -20
-20 -20 -20 -20 -20 -20 -20 -20 -20 -20 -13 -20 -20 -20 -20 -20 -20 -20 -20 -20 -20 -20 -20 -20 -20 -20 -20 -20 -20 -20 -20 -20 -20 -20 -20 -20 -20 -20 -20 -20 -20 -20 -20 -20 -20 -20 -20
-20 -20 -20 -20 -20 -20 -20 -20 -20 -20 -20 -20 -20 -20 -20 -20 -20 -20 -20 -20 -20 -20 -20 -20 -20 -20 -20 -20 -20 -20 -20 -20 -20 -20 -20 -20 -20 -20 -20 -20 -20 -20 -20 -20 -20 -20 -20
-20 -20 -20 -20 -20 -20 -20 -20 -20 -20 -20 -20 -20 -20 -20 -20 -20 -20 -20 -20 -20 -20 -20 -20 -20 -20 -20 -20 -20 -20 -20 -20 -20 -20 -20 -20 -20 -20 -20 -20 -20 -20 -20 -20 -20 -20 -20
-20 -20 -20 -20 -20 -20 -20 -20 -20 -20 -20 -20 -20 -20 -20 -20 -20 -20 -20 -20 -20 -20 -20 -20 -20 -20 -20 -20 -20 -20 -20 -20 -20 -20 -20 -20 -20 -20 -20 -20 -20 -20 -20 -20 -20 -20 -20
-20 -20 -20 -20 -20 -20 -20 -20 -20 -20 -20 -20 -20 -20 -20 -20 -20 -20 -20 -20 -20 -20 -20 -20 -20 -20 -20 -20 -20 -20 -20 -20 -20 -20 -20 -20 -20 -20 -20 -20 -20 -20 -20 -20 -20 -20 -20
-20 -20 -20 -20 -20 -20 -20 -20 -20 -20 -20 -20 -20 -20 -20 -20 -20 -20 -20 -20 -20 -20 -20 -20 -20 -20 -20 -20 -20 -20 -20 -20 -20 -20 -20 -20 -20 -20 -7 -10 -20 -20 -20 -20 -20 -20 -20
-8 -20 -20 -20 -20 -20 -20 -20 -20 -20 -20 -20 -20 -20 -20 -20 -20 -20 -20 -20 -20 -20 -20 -20 -20 -20 -20 -20 -20 -20 -20 -20 -20 -20 -20 -20 -20 -16 -2 -20 -20 -20 -20 -20 -20 -20 -20
20 11 -20 -20 -20 -20 -20 -20 -20 -20 -20 -20 -20 -20 -20 -20 -20 -20 -20 -20 -20 -20 -20 -20 -20 -20 -20 -20 -20 -20 -20 -20 -20 -20 -20 -20 -19 -14 -18 -2 -20 -20 -20 -20 -20 -18 -20
26 23 16 10 13 7 3 -20 -20 -20 -20 -20 -20 -20 -20 -20 -20 -20 -20 -20 -20 -20 -20 -20 -20 -20 -20 -20 -20 -20 -20 -20 -20 -20 -20 -20 -20 -9 -5 9 -9 -20 -20 -20 10 -13 -20
30 11 2 13 -5 -7 9 -20 -20 -20 -20 -20 -20 -20 -20 -20 -20 -20 -20 -20 -20 -20 -20 -20 -20 -20 -20 -20 -20 -20 -20 -20 -20 -20 -20 -20 -20 -20 -9 0 10 -20 -20 -15 -3 -17 -20
29 20 27 12 3 1 13 -19 -9 -20 -20 -20 -20 -20 -20 -20 -20 -20 -20 -20 -20 -20 -20 -20 -20 -20 -20 -20 -20 -20 -20 -20 -20 -20 -20 -20 -20 -20 -20 -20 -20 -20 -20 -19 -18 -1 -20
Wind_Speed
20 19 18 17 17 17 16 16 15 14 14 13 12 11 9 8 7 8 7 7 7 7 8 9 8 9 3 7 3 5 14 10 5 5 6 4 5 2 4 1 1 1 2 2 5 8 6
20 20 19 19 18 16 15 14 13 13 12 11 10 10 9 9 8 7 6 6 6 7 7 8 9 4 4 8 4 7 8 5 6 6 6 6 3 1 4 2 2 1 3 6 5 5 4
19 20 19 19 18 17 15 13 12 11 11 10 9 8 7 7 7 7 6 6 6 6 7 7 8 4 10 4 3 6 7 3 4 3 3 3 2 2 1 2 4 2 6 6 0 4 3
20 21 21 20 19 18 16 15 13 11 10 9 8 8 7 7 8 8 6 5 6 6 7 8 7 5 5 3 2 4 5 3 5 3 3 3 3 4 2 1 4 5 4 5 2 6 2
19 20 20 21 21 20 18 16 13 11 10 9 8 7 7 7 8 7 5 4 4 7 6 7 4 5 2 6 4 4 1 2 3 3 3 2 3 3 6 3 5 7 2 2 9 3 4
19 19 20 20 20 21 20 18 16 13 11 10 8 6 5 6 7 6 5 3 8 7 5 2 3 5 4 3 4 4 3 2 3 2 3 5 6 4 5 6 2 3 4 4 6 5 4
19 20 20 20 20 20 20 20 18 16 13 11 10 8 5 4 5 7 4 4 6 7 9 4 1 2 2 6 2 3 3 2 1 5 4 4 7 2 2 1 2 1 3 4 5 5 7
17 18 20 21 21 20 20 20 19 17 15 13 12 10 6 5 6 6 4 5 1 2 6 2 1 1 1 1 3 4 3 3 4 4 3 6 3 4 1 1 2 4 3 4 5 2 3
16 17 18 20 22 22 22 21 20 19 16 14 12 10 9 5 3 6 4 4 1 0 5 1 1 1 2 2 0 6 4 2 4 4 3 5 3 1 1 0 1 3 3 2 3 8 2
16 17 17 18 19 20 21 22 22 21 17 15 12 11 8 3 7 2 2 1 1 1 7 9 6 4 2 2 4 1 2 1 3 3 3 3 0 1 2 2 1 4 2 3 5 6 4
15 16 17 17 17 17 18 19 21 22 19 17 12 10 8 6 6 3 2 1 1 4 6 4 4 0 0 0 2 2 1 2 2 2 3 1 1 2 2 1 1 3 2 3 1 2 4
15 15 15 17 17 17 17 17 18 19 20 17 12 9 3 5 4 1 1 2 3 10 3 4 2 4 3 3 3 3 1 4 1 3 3 2 0 1 1 2 0 5 3 4 4 2 2
15 16 16 17 18 18 18 19 19 19 19 18 11 7 5 2 3 1 2 4 8 8 3 3 3 4 1 4 3 5 4 6 4 5 8 6 1 1 2 3 1 7 6 5 7 5 5
15 16 17 18 19 20 20 21 21 21 21 17 6 3 4 3 0 2 3 6 8 2 2 1 1 2 2 4 3 6 3 4 5 5 4 4 7 2 2 3 1 3 3 6 5 3 6
13 15 17 19 21 22 22 23 23 22 22 15 4 2 3 4 1 2 6 8 6 5 1 3 2 4 4 2 3 6 2 3 2 1 4 2 5 1 2 1 2 1 1 3 2 1 2
12 13 15 17 19 21 23 25 25 24 22 13 3 2 1 4 1 4 7 4 3 2 2 1 1 2 2 4 5 5 1 2 3 0 1 4 4 0 1 1 3 1 4 3 3 1 5
9 11 14 15 17 19 20 23 26 27 27 11 4 4 3 2 2 6 5 4 2 1 2 2 0 2 1 2 1 2 2 1 2 2 2 4 4 5 1 4 6 1 0 3 2 4 4
7 10 12 13 15 17 19 21 22 25 28 8 3 2 3 1 6 2 2 2 1 2 2 1 2 2 3 1 2 3 4 4 5 6 4 1 4 4 9 0 1 1 4 6 5 5 4
5 8 11 13 15 16 17 19 20 20 20 4 2 2 2 3 4 1 2 0 1 3 2 2 1 4 1 2 3 4 2 3 4 4 6 5 0 4 9 5 2 3 4 4 3 2 8
2 4 8 11 14 15 17 18 19 21 19 4 3 4 5 5 1 4 2 1 1 2 1 3 2 2 1 2 4 3 2 2 2 2 1 4 4 8 8 6 4 4 5 4 4 3 8
5 1 5 9 13 16 16 17 18 20 16 5 4 1 1 1 2 2 1 1 2 2 1 3 1 4 6 3 2 4 1 4 0 2 3 3 6 6 8 8 7 12 11 14 15 17 13
7 4 1 3 7 12 14 16 20 21 6 6 2 3 4 1 1 3 1 4 4 2 4 3 3 2 5 6 8 4 3 3 7 1 4 0 5 2 5 9 14 19 15 19 22 23 23
11 7 4 0 4 7 12 14 16 19 9 3 1 1 3 3 2 2 3 2 3 1 1 3 2 1 4 7 6 8 7 6 7 7 7 6 4 2 7 1 6 10 12 16 4 5 8
13 11 8 4 3 4 8 12 14 15 7 3 1 2 4 3 0 3 1 1 2 2 3 0 2 4 3 3 4 3 4 9 10 15 9 6 6 4 9 5 7 6 4 6 8 5 5
15 12 10 7 4 4 5 8 13 14 11 4 0 4 3 3 3 4 1 2 3 4 2 3 1 1 4 5 3 6 5 5 4 3 6 13 5 7 5 5 10 11 5 1 5 1 2
17 14 11 8 5 4 4 6 9 12 12 3 2 2 3 4 5 3 4 3 3 2 3 2 4 3 3 3 2 2 4 3 5 3 4 3 7 7 3 5 6 4 5 5 1 4 2
19 14 11 9 6 3 2 4 6 8 10 3 2 3 4 1 3 3 4 4 4 2 1 2 5 6 3 2 2 4 5 3 4 3 2 3 2 14 12 9 8 3 4 4 3 4 3
14 13 9 7 5 3 1 1 2 5 7 3 1 4 3 2 5 2 1 3 2 2 4 2 4 3 3 1 2 4 3 3 3 3 3 5 5 5 3 5 9 5 5 2 5 9 13
8 9 9 9 8 5 3 3 4 4 6 4 2 2 1 3 4 3 4 4 2 5 5 0 3 1 3 2 1 2 3 2 2 5 3 5 6 1 5 7 4 2 2 5 8 13 14
Wind_Direction
43 38 39 40 36 35 35 34 35 35 37 41 39 42 40 43 39 35 27 10 3 8 2 358 350 335 63 49 69 318 337 337 359 30 49 58 60 85 134 145 11 165 290 272 284 291 264
42 39 35 31 29 30 28 29 26 28 27 31 32 31 25 23 18 8 358 353 352 355 356 349 342 328 69 72 282 330 331 350 14 45 30 44 104 130 101 119 126 329 289 285 309 295 286
42 40 37 35 27 24 24 22 21 20 18 14 17 19 17 16 10 355 341 346 353 360 357 341 355 57 59 171 299 325 357 8 359 45 79 50 74 83 129 60 340 348 346 334 193 319 303
38 36 35 33 32 30 29 25 19 13 10 8 7 5 7 8 3 354 342 336 341 346 336 352 3 63 81 284 271 7 347 349 10 32 81 92 60 102 64 274 22 36 48 19 297 341 286
31 30 29 29 29 30 31 28 25 21 16 14 14 11 1 359 355 352 340 330 344 333 320 336 43 79 57 323 20 313 350 2 339 36 30 67 64 80 28 51 23 10 330 344 316 38 346
26 25 24 23 24 26 27 27 28 30 25 19 15 14 22 5 355 354 336 329 329 13 16 26 55 48 5 316 305 340 322 354 40 5 40 48 47 64 32 42 220 314 335 292 254 305 6
23 19 19 20 19 20 23 25 24 23 22 21 13 4 5 31 18 5 31 23 23 357 39 81 282 113 308 298 293 349 350 6 6 52 49 19 65 102 229 190 120 176 239 260 265 313 344
19 16 13 11 13 15 15 15 19 20 15 12 10 6 12 25 31 62 65 76 106 176 87 2 132 108 273 346 358 322 355 85 52 57 22 27 101 215 225 77 226 230 270 297 274 268 334
16 17 13 9 7 7 7 8 12 12 10 6 4 5 353 346 85 48 84 122 328 109 102 353 180 76 315 45 38 318 34 27 78 58 21 136 184 151 80 59 278 240 218 220 247 326 261
16 13 13 12 9 7 3 3 2 4 5 4 2 1 353 310 49 167 67 299 352 162 74 322 354 358 22 54 358 341 4 128 44 148 153 103 123 141 195 180 176 341 193 30 330 17 286
15 14 11 12 16 13 7 5 1 356 356 356 2 11 34 60 144 76 162 332 351 53 58 274 309 160 164 136 301 9 18 40 117 106 98 237 116 4 77 31 295 246 20 278 220 184 16
13 13 15 13 12 12 9 7 4 358 351 350 349 359 123 35 48 23 83 77 51 45 266 357 305 356 29 7 346 310 70 47 116 96 21 93 183 119 215 287 247 315 21 59 57 95 17
9 9 12 13 11 10 7 4 3 1 354 346 334 358 68 84 152 213 76 54 39 100 296 327 332 5 288 318 354 28 43 15 58 48 12 346 18 348 39 13 48 28 34 339 352 6 224
6 7 8 10 9 7 7 1 359 358 353 349 331 45 16 72 83 115 62 54 72 190 219 318 315 299 46 1 6 0 57 30 32 74 87 69 331 35 356 89 172 41 117 148 246 263 280
2 6 6 7 6 4 3 0 356 355 352 351 116 21 45 338 62 73 77 55 188 204 222 346 327 69 339 9 17 28 55 187 185 57 116 66 281 32 47 101 102 134 81 160 113 268 20
357 4 8 7 5 4 2 358 355 352 353 350 91 63 5 312 86 65 73 187 181 212 151 107 52 35 330 319 6 20 276 185 159 70 99 185 316 39 23 89 36 108 154 61 2 296 262
358 1 4 7 4 5 3 1 356 351 349 334 52 58 257 353 87 51 116 211 201 69 43 60 212 315 319 322 354 299 269 255 171 133 69 126 113 290 11 198 183 102 164 69 134 175 205
352 357 1 2 4 4 3 0 1 357 347 25 80 44 295 20 53 61 113 191 112 162 65 93 122 203 210 237 268 261 240 229 169 145 141 92 147 275 239 157 360 194 203 161 136 257 245
347 359 358 360 356 1 2 359 359 2 6 345 38 251 314 64 118 37 275 121 172 145 205 154 237 200 166 234 277 215 276 31 133 145 164 189 290 346 330 5 14 222 206 180 139 73 212
296 351 357 358 352 358 357 359 359 357 4 96 7 354 336 48 15 114 99 246 216 179 208 173 185 99 109 252 212 285 292 17 182 209 214 150 183 190 218 226 167 217 205 213 170 200 271
202 297 14 5 351 350 353 357 357 359 4 97 39 295 243 320 355 90 67 326 232 228 201 184 197 200 177 240 241 225 211 346 236 277 159 154 206 236 254 275 271 265 253 249 243 244 239
211 193 328 30 2 345 348 357 357 356 15 84 71 11 351 260 317 130 145 220 214 274 162 240 212 181 194 200 197 208 160 174 225 77 183 33 264 89 274 245 250 267 261 249 245 258 260
199 204 200 209 56 358 353 0 8 1 14 75 172 128 99 332 12 88 238 175 157 358 344 12 161 80 275 252 237 237 216 209 220 189 201 176 183 359 273 359 317 296 242 232 231 207 217
203 192 193 173 87 39 8 2 10 12 42 107 161 106 90 281 299 235 209 16 248 228 241 136 131 161 252 327 315 295 254 242 239 238 208 190 144 178 282 356 271 247 282 224 213 246 201
200 196 188 176 145 83 31 20 13 9 18 82 198 109 128 216 188 285 228 250 331 328 281 265 286 295 314 14 342 335 327 340 262 209 224 218 171 246 241 201 290 296 302 208 174 156 345
189 192 188 175 151 114 62 35 37 16 11 59 43 8 96 120 250 147 178 192 209 216 329 281 335 321 58 86 95 245 244 289 305 314 25 106 200 210 169 226 251 241 301 318 148 235 44
181 179 175 167 160 130 68 23 32 27 29 84 13 27 82 167 267 162 200 188 140 113 191 305 336 349 19 118 178 199 245 229 249 244 217 47 179 222 238 247 271 262 304 331 233 306 314
144 149 157 173 159 144 107 25 21 33 41 84 336 2 108 180 280 229 241 151 86 101 149 266 18 5 39 120 159 250 192 252 312 259 200 187 188 214 223 260 266 15 14 39 333 327 314
157 171 177 177 162 172 142 124 107 66 51 92 104 345 49 130 248 318 292 296 193 177 136 10 179 188 192 158 129 268 284 352 164 282 296 278 203 212 193 238 308 73 81 292 289 293 290